| time (UTC) | temp F | wind direction | speed MPH | gust MPH | rain 1hr in | rain 24hr in | rain mn in | humidity % | barometer mb |
| 20260502191523 | 61 | 165 | 2.0 | 6.0 | 0.00 | 0.28 | 0.11 | 54 | 1022.7 |
| 20260502191019 | 62 | 281 | 1.0 | 4.0 | 0.00 | 0.28 | 0.11 | 53 | 1022.7 |
| 20260502190519 | 61 | 281 | 0.0 | 3.0 | 0.00 | 0.28 | 0.11 | 53 | 1022.7 |
| 20260502190022 | 61 | 281 | 1.0 | 5.0 | 0.00 | 0.28 | 0.11 | 53 | 1022.7 |
| 20260502185518 | 62 | 286 | 2.0 | 6.0 | 0.00 | 0.28 | 0.11 | 52 | 1022.8 |
| 20260502185018 | 62 | 343 | 1.0 | 6.0 | 0.00 | 0.28 | 0.11 | 52 | 1022.8 |
| 20260502184525 | 62 | 336 | 2.0 | 7.0 | 0.00 | 0.28 | 0.11 | 54 | 1022.9 |
| 20260502184017 | 62 | 323 | 1.0 | 7.0 | 0.00 | 0.28 | 0.11 | 55 | 1022.9 |
| 20260502183517 | 61 | 15 | 1.0 | 6.0 | 0.00 | 0.28 | 0.11 | 57 | 1023.0 |
| 20260502183016 | 60 | 298 | 3.0 | 6.0 | 0.00 | 0.28 | 0.11 | 54 | 1023.0 |
| 20260502182515 | 60 | 240 | 1.0 | 6.0 | 0.00 | 0.28 | 0.11 | 55 | 1023.0 |
| 20260502182015 | 60 | 187 | 0.0 | 6.0 | 0.00 | 0.28 | 0.11 | 55 | 1023.1 |
| 20260502181515 | 61 | 213 | 2.0 | 6.0 | 0.00 | 0.28 | 0.11 | 56 | 1023.1 |
| 20260502181014 | 61 | 99 | 2.0 | 6.0 | 0.00 | 0.28 | 0.11 | 57 | 1023.1 |
| 20260502180514 | 61 | 195 | 0.0 | 7.0 | 0.00 | 0.28 | 0.11 | 58 | 1023.2 |
| 20260502170502 | 55 | 227 | 1.0 | 4.0 | 0.00 | 0.28 | 0.11 | 67 | 1023.7 |
| 20260502164058 | 54 | 227 | 0.0 | 1.0 | 0.00 | 0.28 | 0.11 | 71 | 1023.6 |
| 20260502163556 | 54 | 227 | 0.0 | 1.0 | 0.00 | 0.28 | 0.11 | 71 | 1023.6 |
| 20260502163056 | 54 | 227 | 0.0 | 2.0 | 0.00 | 0.28 | 0.11 | 75 | 1023.6 |
| 20260502162555 | 53 | 227 | 0.0 | 2.0 | 0.00 | 0.28 | 0.11 | 71 | 1023.6 |
| 20260502162056 | 54 | 227 | 0.0 | 2.0 | 0.00 | 0.28 | 0.11 | 72 | 1023.5 |
| 20260502161558 | 53 | 227 | 0.0 | 2.0 | 0.00 | 0.28 | 0.11 | 74 | 1023.5 |
| 20260502161053 | 53 | 227 | 0.0 | 4.0 | 0.00 | 0.28 | 0.11 | 74 | 1023.6 |
| 20260502160553 | 53 | 227 | 0.0 | 5.0 | 0.00 | 0.28 | 0.11 | 75 | 1023.6 |
| 20260502152045 | 51 | 227 | 1.0 | 5.0 | 0.00 | 0.28 | 0.11 | 81 | 1023.3 |
| 20260502151600 | 51 | 227 | 1.0 | 5.0 | 0.00 | 0.28 | 0.11 | 82 | 1023.3 |
| 20260502151044 | 51 | 215 | 3.0 | 5.0 | 0.00 | 0.28 | 0.11 | 82 | 1023.3 |
| 20260502150544 | 51 | 238 | 2.0 | 6.0 | 0.00 | 0.28 | 0.11 | 83 | 1023.2 |
| 20260502130600 | 49 | 292 | 0.0 | 3.0 | 0.00 | 0.30 | 0.10 | 91 | 1022.4 |
| 20260502130104 | 49 | 292 | 2.0 | 3.0 | 0.00 | 0.30 | 0.10 | 91 | 1022.3 |
| 20260502123555 | 48 | 331 | 0.0 | 7.0 | 0.00 | 0.32 | 0.10 | 90 | 1021.9 |
| 20260502123054 | 49 | 296 | 4.0 | 7.0 | 0.00 | 0.32 | 0.10 | 91 | 1021.9 |
| 20260502122554 | 49 | 296 | 2.0 | 6.0 | 0.00 | 0.32 | 0.10 | 91 | 1021.9 |
| 20260502122053 | 49 | 296 | 3.0 | 6.0 | 0.00 | 0.32 | 0.10 | 91 | 1021.9 |
| 20260502121553 | 49 | 304 | 1.0 | 7.0 | 0.00 | 0.32 | 0.10 | 91 | 1021.9 |
| 20260502121054 | 49 | 298 | 3.0 | 7.0 | 0.00 | 0.32 | 0.10 | 90 | 1021.7 |
| 20260502120555 | 49 | 305 | 3.0 | 6.0 | 0.00 | 0.32 | 0.10 | 90 | 1021.6 |
| 20260502115550 | 48 | 302 | 3.0 | 7.0 | 0.00 | 0.32 | 0.10 | 90 | 1021.5 |
| 20260502115050 | 49 | 307 | 2.0 | 7.0 | 0.00 | 0.32 | 0.10 | 90 | 1021.4 |
| 20260502114554 | 49 | 310 | 1.0 | 8.0 | 0.01 | 0.32 | 0.10 | 90 | 1021.3 |
| 20260502114050 | 49 | 311 | 3.0 | 8.0 | 0.02 | 0.32 | 0.10 | 90 | 1021.3 |
| 20260502113549 | 49 | 286 | 1.0 | 5.0 | 0.02 | 0.32 | 0.10 | 90 | 1021.3 |
| 20260502113051 | 49 | 286 | 0.0 | 4.0 | 0.02 | 0.32 | 0.10 | 91 | 1021.3 |
| 20260502112548 | 49 | 286 | 1.0 | 6.0 | 0.03 | 0.32 | 0.10 | 90 | 1021.3 |
| 20260502112048 | 49 | 286 | 3.0 | 6.0 | 0.03 | 0.32 | 0.10 | 90 | 1021.4 |
| 20260502111548 | 49 | 286 | 1.0 | 4.0 | 0.03 | 0.32 | 0.10 | 90 | 1021.4 |
| 20260502111048 | 49 | 286 | 1.0 | 4.0 | 0.03 | 0.32 | 0.10 | 90 | 1021.4 |
| 20260502110551 | 49 | 286 | 1.0 | 4.0 | 0.03 | 0.32 | 0.10 | 90 | 1021.4 |
| 20260502110055 | 49 | 265 | 0.0 | 2.0 | 0.03 | 0.32 | 0.10 | 89 | 1021.3 |
| 20260502105547 | 49 | 265 | 0.0 | 2.0 | 0.04 | 0.44 | 0.10 | 89 | 1021.3 |
| 20260502105046 | 49 | 265 | 0.0 | 2.0 | 0.03 | 0.43 | 0.09 | 88 | 1021.4 |
| 20260502104549 | 49 | 265 | 0.0 | 4.0 | 0.04 | 0.43 | 0.09 | 88 | 1021.4 |
| 20260502104048 | 49 | 265 | 1.0 | 5.0 | 0.04 | 0.42 | 0.08 | 88 | 1021.4 |
| 20260502103546 | 49 | 260 | 1.0 | 6.0 | 0.04 | 0.42 | 0.08 | 89 | 1021.4 |
| 20260502103046 | 49 | 260 | 1.0 | 6.0 | 0.04 | 0.42 | 0.08 | 88 | 1021.5 |
| 20260502102546 | 49 | 294 | 1.0 | 6.0 | 0.03 | 0.41 | 0.07 | 89 | 1021.5 |
| 20260502102046 | 49 | 293 | 3.0 | 6.0 | 0.03 | 0.41 | 0.07 | 88 | 1021.6 |
| 20260502101549 | 49 | 276 | 4.0 | 6.0 | 0.03 | 0.41 | 0.07 | 88 | 1021.6 |
| 20260502101046 | 49 | 262 | 3.0 | 6.0 | 0.03 | 0.41 | 0.07 | 88 | 1021.6 |
| 20260502100543 | 49 | 276 | 3.0 | 6.0 | 0.04 | 0.41 | 0.07 | 87 | 1021.5 |
| 20260502091033 | 51 | 210 | 0.0 | 1.0 | 0.04 | 0.53 | 0.04 | 85 | 1020.8 |
| 20260502090536 | 51 | 210 | 0.0 | 1.0 | 0.03 | 0.52 | 0.03 | 84 | 1020.8 |
| 20260502071523 | 53 | 254 | 0.0 | 5.0 | 0.00 | 0.49 | 0.00 | 80 | 1020.5 |
| 20260502071023 | 53 | 254 | 0.0 | 5.0 | 0.00 | 0.49 | 0.00 | 80 | 1020.5 |
| 20260502070522 | 52 | 254 | 1.0 | 6.0 | 0.00 | 0.49 | 0.00 | 80 | 1020.6 |
| 20260502070021 | 52 | 254 | 4.0 | 7.0 | 0.00 | 0.49 | 0.00 | 82 | 1020.7 |
| 20260502065521 | 52 | 224 | 4.0 | 7.0 | 0.00 | 0.49 | 0.00 | 84 | 1020.5 |
| 20260502065019 | 52 | 245 | 5.0 | 8.0 | 0.00 | 0.49 | 0.00 | 85 | 1020.5 |
| 20260502064537 | 53 | 276 | 4.0 | 8.0 | 0.00 | 0.49 | 0.00 | 85 | 1020.5 |
| 20260502064021 | 53 | 265 | 3.0 | 6.0 | 0.00 | 0.49 | 0.00 | 85 | 1020.4 |
| 20260502063516 | 53 | 213 | 1.0 | 6.0 | 0.00 | 0.49 | 0.00 | 84 | 1020.2 |
| 20260502063020 | 53 | 213 | 3.0 | 6.0 | 0.00 | 0.49 | 0.00 | 84 | 1020.1 |
| 20260502062517 | 53 | 191 | 4.0 | 6.0 | 0.00 | 0.49 | 0.00 | 83 | 1020.0 |
| 20260502062017 | 53 | 207 | 2.0 | 6.0 | 0.00 | 0.49 | 0.00 | 83 | 1020.0 |
| 20260502061513 | 53 | 207 | 3.0 | 6.0 | 0.00 | 0.49 | 0.00 | 83 | 1019.9 |
| 20260502061011 | 53 | 237 | 4.0 | 7.0 | 0.00 | 0.49 | 0.00 | 82 | 1019.8 |
| 20260502060511 | 53 | 242 | 4.0 | 7.0 | 0.00 | 0.49 | 0.00 | 82 | 1019.8 |
| 20260502060010 | 53 | 208 | 2.0 | 6.0 | 0.00 | 0.49 | 0.00 | 82 | 1019.7 |
| 20260502055510 | 53 | 208 | 3.0 | 6.0 | 0.00 | 0.49 | 0.49 | 82 | 1019.7 |
| 20260502055009 | 53 | 186 | 2.0 | 6.0 | 0.00 | 0.49 | 0.49 | 82 | 1019.7 |
| 20260502054509 | 53 | 186 | 1.0 | 6.0 | 0.00 | 0.49 | 0.49 | 83 | 1019.7 |
| 20260502054009 | 53 | 186 | 1.0 | 6.0 | 0.00 | 0.49 | 0.49 | 84 | 1019.6 |
| 20260502053509 | 53 | 186 | 2.0 | 6.0 | 0.00 | 0.49 | 0.49 | 85 | 1019.6 |
| 20260502053009 | 53 | 186 | 2.0 | 5.0 | 0.00 | 0.49 | 0.49 | 86 | 1019.7 |
| 20260502052509 | 53 | 186 | 1.0 | 6.0 | 0.00 | 0.49 | 0.49 | 86 | 1019.7 |
| 20260502052009 | 53 | 186 | 3.0 | 6.0 | 0.00 | 0.49 | 0.49 | 86 | 1019.6 |
| 20260502051508 | 53 | 215 | 1.0 | 5.0 | 0.00 | 0.49 | 0.49 | 86 | 1019.7 |
| 20260502051006 | 53 | 215 | 3.0 | 7.0 | 0.00 | 0.49 | 0.49 | 86 | 1019.5 |
| 20260502050506 | 53 | 247 | 3.0 | 7.0 | 0.00 | 0.49 | 0.49 | 85 | 1019.5 |
| 20260502050012 | 53 | 258 | 4.0 | 8.0 | 0.00 | 0.49 | 0.49 | 85 | 1019.4 |
| 20260502045505 | 53 | 268 | 3.0 | 8.0 | 0.00 | 0.49 | 0.49 | 86 | 1019.3 |
| 20260502045006 | 53 | 317 | 4.0 | 7.0 | 0.00 | 0.49 | 0.49 | 85 | 1019.1 |
| 20260502044507 | 53 | 315 | 3.0 | 6.0 | 0.00 | 0.49 | 0.49 | 86 | 1019.0 |
| 20260502044002 | 53 | 309 | 3.0 | 5.0 | 0.00 | 0.49 | 0.49 | 86 | 1019.1 |
| 20260502043502 | 53 | 313 | 1.0 | 5.0 | 0.00 | 0.49 | 0.49 | 86 | 1019.0 |
| 20260502043002 | 53 | 313 | 1.0 | 7.0 | 0.00 | 0.49 | 0.49 | 86 | 1019.0 |
| 20260502042503 | 54 | 294 | 3.0 | 7.0 | 0.00 | 0.49 | 0.49 | 87 | 1019.0 |
| 20260502042002 | 54 | 316 | 3.0 | 7.0 | 0.00 | 0.49 | 0.49 | 88 | 1018.9 |
| 20260502041502 | 54 | 319 | 3.0 | 6.0 | 0.00 | 0.49 | 0.49 | 88 | 1018.9 |
| 20260502041000 | 55 | 315 | 3.0 | 6.0 | 0.00 | 0.49 | 0.49 | 88 | 1018.9 |
| 20260502040500 | 55 | 321 | 4.0 | 7.0 | 0.00 | 0.49 | 0.49 | 88 | 1018.8 |
| 20260502040108 | 55 | 330 | 3.0 | 7.0 | 0.00 | 0.49 | 0.49 | 88 | 1018.8 |
| 20260502035559 | 55 | 306 | 2.0 | 5.0 | 0.00 | 0.49 | 0.49 | 87 | 1018.7 |
| 20260502035103 | 55 | 306 | 2.0 | 6.0 | 0.00 | 0.49 | 0.49 | 87 | 1018.7 |
| 20260502034559 | 55 | 306 | 3.0 | 6.0 | 0.00 | 0.49 | 0.49 | 87 | 1018.6 |
| 20260502034058 | 55 | 276 | 2.0 | 5.0 | 0.00 | 0.49 | 0.49 | 87 | 1018.6 |
| 20260502033557 | 55 | 231 | 1.0 | 4.0 | 0.00 | 0.49 | 0.49 | 85 | 1018.4 |
| 20260502033059 | 55 | 215 | 1.0 | 4.0 | 0.00 | 0.49 | 0.49 | 86 | 1018.4 |
| 20260502032559 | 54 | 215 | 0.0 | 2.0 | 0.00 | 0.49 | 0.49 | 87 | 1018.2 |
| 20260502032057 | 55 | 215 | 0.0 | 4.0 | 0.00 | 0.49 | 0.49 | 86 | 1018.2 |
| 20260502031629 | 55 | 215 | 0.0 | 5.0 | 0.00 | 0.49 | 0.49 | 86 | 1018.4 |
| 20260502031056 | 55 | 215 | 2.0 | 7.0 | 0.01 | 0.49 | 0.49 | 85 | 1018.4 |
| 20260502030557 | 55 | 215 | 3.0 | 7.0 | 0.01 | 0.49 | 0.49 | 84 | 1018.4 |
| 20260502030059 | 55 | 188 | 3.0 | 9.0 | 0.01 | 0.49 | 0.49 | 82 | 1018.4 |
| 20260502025554 | 55 | 164 | 2.0 | 9.0 | 0.01 | 0.49 | 0.49 | 83 | 1018.3 |
| 20260502025054 | 55 | 179 | 1.0 | 4.0 | 0.01 | 0.49 | 0.49 | 82 | 1018.3 |
| 20260502024554 | 55 | 184 | 1.0 | 6.0 | 0.01 | 0.49 | 0.49 | 84 | 1018.3 |
| 20260502024053 | 55 | 172 | 3.0 | 7.0 | 0.01 | 0.49 | 0.49 | 86 | 1018.2 |
| 20260502023554 | 55 | 148 | 3.0 | 8.0 | 0.01 | 0.49 | 0.49 | 87 | 1018.1 |
| 20260502023055 | 55 | 127 | 3.0 | 8.0 | 0.03 | 0.49 | 0.49 | 88 | 1017.9 |
| 20260502022551 | 55 | 141 | 4.0 | 7.0 | 0.08 | 0.49 | 0.49 | 88 | 1017.7 |
| 20260502022051 | 55 | 109 | 0.0 | 6.0 | 0.14 | 0.49 | 0.49 | 88 | 1017.7 |
| 20260502021552 | 55 | 109 | 2.0 | 6.0 | 0.13 | 0.48 | 0.48 | 87 | 1017.5 |
| 20260502021052 | 55 | 109 | 3.0 | 6.0 | 0.14 | 0.48 | 0.48 | 87 | 1017.3 |
| 20260502020551 | 55 | 38 | 0.0 | 3.0 | 0.14 | 0.48 | 0.48 | 88 | 1017.4 |
| 20260502020107 | 55 | 38 | 2.0 | 3.0 | 0.16 | 0.48 | 0.48 | 87 | 1017.5 |
| 20260502015555 | 55 | 13 | 0.0 | 6.0 | 0.17 | 0.48 | 0.48 | 87 | 1017.5 |
| 20260502015051 | 54 | 329 | 1.0 | 6.0 | 0.17 | 0.48 | 0.48 | 85 | 1017.7 |
| 20260502014554 | 54 | 359 | 3.0 | 9.0 | 0.17 | 0.48 | 0.48 | 85 | 1017.9 |
| 20260502014053 | 54 | 23 | 4.0 | 13.0 | 0.17 | 0.48 | 0.48 | 83 | 1017.8 |
| 20260502013549 | 54 | 28 | 6.0 | 14.0 | 0.17 | 0.48 | 0.48 | 82 | 1017.8 |
| 20260502013050 | 55 | 355 | 7.0 | 14.0 | 0.14 | 0.45 | 0.45 | 80 | 1017.7 |
| 20260502012548 | 56 | 342 | 7.0 | 14.0 | 0.09 | 0.40 | 0.40 | 77 | 1017.6 |
| 20260502012048 | 58 | 31 | 5.0 | 10.0 | 0.04 | 0.35 | 0.35 | 74 | 1017.5 |
| 20260502011551 | 58 | 150 | 3.0 | 10.0 | 0.04 | 0.35 | 0.35 | 72 | 1016.9 |
| 20260502011047 | 59 | 106 | 4.0 | 10.0 | 0.03 | 0.34 | 0.34 | 69 | 1016.8 |
| 20260502010543 | 60 | 161 | 4.0 | 16.0 | 0.02 | 0.33 | 0.33 | 65 | 1016.6 |
| 20260502010042 | 61 | 137 | 6.0 | 16.0 | 0.00 | 0.31 | 0.31 | 60 | 1016.4 |
| 20260502005541 | 62 | 155 | 8.0 | 15.0 | 0.00 | 0.31 | 0.31 | 55 | 1016.2 |
| 20260502005042 | 62 | 137 | 9.0 | 15.0 | 0.00 | 0.31 | 0.31 | 55 | 1016.0 |
| 20260502004547 | 62 | 130 | 8.0 | 14.0 | 0.00 | 0.31 | 0.31 | 54 | 1016.0 |
| 20260502004040 | 63 | 125 | 5.0 | 13.0 | 0.00 | 0.31 | 0.31 | 53 | 1016.0 |
| 20260502003542 | 63 | 105 | 7.0 | 13.0 | 0.00 | 0.31 | 0.31 | 53 | 1015.9 |
| 20260502003040 | 63 | 130 | 6.0 | 12.0 | 0.00 | 0.31 | 0.31 | 54 | 1015.9 |
| 20260502002539 | 63 | 185 | 6.0 | 12.0 | 0.00 | 0.31 | 0.31 | 54 | 1015.8 |
| 20260502002040 | 64 | 112 | 5.0 | 15.0 | 0.00 | 0.31 | 0.31 | 54 | 1015.7 |
| 20260502001614 | 64 | 117 | 6.0 | 15.0 | 0.00 | 0.31 | 0.31 | 54 | 1015.7 |
| 20260502001038 | 64 | 148 | 7.0 | 12.0 | 0.00 | 0.31 | 0.31 | 53 | 1015.6 |
| 20260502000538 | 64 | 178 | 6.0 | 14.0 | 0.00 | 0.31 | 0.31 | 52 | 1015.7 |
| 20260502000038 | 64 | 163 | 7.0 | 15.0 | 0.00 | 0.31 | 0.31 | 52 | 1015.6 |
| 20260501235539 | 65 | 195 | 6.0 | 20.0 | 0.00 | 0.31 | 0.31 | 51 | 1015.6 |
| 20260501235038 | 65 | 143 | 9.0 | 20.0 | 0.00 | 0.31 | 0.31 | 52 | 1015.6 |
| 20260501234538 | 65 | 69 | 8.0 | 19.0 | 0.00 | 0.31 | 0.31 | 52 | 1015.4 |
| 20260501234037 | 65 | 149 | 9.0 | 16.0 | 0.00 | 0.31 | 0.31 | 50 | 1015.5 |
| 20260501233540 | 65 | 195 | 9.0 | 16.0 | 0.00 | 0.31 | 0.31 | 50 | 1015.3 |
| 20260501233038 | 66 | 198 | 8.0 | 14.0 | 0.00 | 0.31 | 0.31 | 48 | 1015.4 |
| 20260501232537 | 67 | 236 | 5.0 | 10.0 | 0.00 | 0.31 | 0.31 | 46 | 1015.3 |
| 20260501232037 | 66 | 206 | 5.0 | 10.0 | 0.00 | 0.31 | 0.31 | 46 | 1015.3 |
| 20260501231539 | 67 | 224 | 5.0 | 10.0 | 0.00 | 0.31 | 0.31 | 46 | 1015.3 |
| 20260501231036 | 67 | 208 | 4.0 | 9.0 | 0.00 | 0.31 | 0.31 | 47 | 1015.2 |
| 20260501230540 | 67 | 212 | 5.0 | 9.0 | 0.00 | 0.31 | 0.31 | 46 | 1015.1 |
| 20260501230036 | 67 | 206 | 4.0 | 13.0 | 0.00 | 0.31 | 0.31 | 46 | 1015.0 |
| 20260501225536 | 67 | 212 | 2.0 | 13.0 | 0.00 | 0.31 | 0.31 | 47 | 1015.0 |
| 20260501225035 | 67 | 205 | 5.0 | 10.0 | 0.00 | 0.31 | 0.31 | 46 | 1014.9 |
| 20260501224549 | 67 | 232 | 3.0 | 7.0 | 0.00 | 0.31 | 0.31 | 45 | 1014.9 |
| 20260501224038 | 67 | 238 | 4.0 | 8.0 | 0.00 | 0.31 | 0.31 | 45 | 1014.8 |
| 20260501223535 | 67 | 167 | 4.0 | 8.0 | 0.00 | 0.31 | 0.31 | 45 | 1014.8 |
| 20260501223035 | 67 | 196 | 4.0 | 7.0 | 0.00 | 0.31 | 0.31 | 47 | 1014.8 |
| 20260501222535 | 66 | 169 | 0.0 | 7.0 | 0.00 | 0.31 | 0.31 | 47 | 1014.8 |
| 20260501222036 | 67 | 199 | 2.0 | 9.0 | 0.00 | 0.31 | 0.31 | 47 | 1014.8 |
| 20260501221537 | 67 | 197 | 2.0 | 9.0 | 0.00 | 0.31 | 0.31 | 47 | 1014.8 |
| 20260501221035 | 67 | 165 | 2.0 | 8.0 | 0.00 | 0.31 | 0.31 | 45 | 1014.8 |
| 20260501220535 | 67 | 135 | 3.0 | 8.0 | 0.00 | 0.31 | 0.31 | 46 | 1014.8 |
| 20260501220039 | 67 | 181 | 3.0 | 7.0 | 0.00 | 0.31 | 0.31 | 47 | 1014.8 |
| 20260501215534 | 67 | 179 | 3.0 | 8.0 | 0.00 | 0.31 | 0.31 | 46 | 1014.9 |
| 20260501215034 | 68 | 286 | 4.0 | 11.0 | 0.00 | 0.31 | 0.31 | 42 | 1014.9 |
| 20260501214535 | 69 | 350 | 6.0 | 11.0 | 0.00 | 0.31 | 0.31 | 44 | 1014.8 |
| 20260501214034 | 69 | 65 | 4.0 | 9.0 | 0.00 | 0.31 | 0.31 | 44 | 1015.0 |
| 20260501213534 | 69 | 19 | 3.0 | 9.0 | 0.00 | 0.31 | 0.31 | 38 | 1015.1 |
| 20260501213038 | 70 | 18 | 3.0 | 10.0 | 0.00 | 0.31 | 0.31 | 39 | 1015.1 |
| 20260501212534 | 72 | 21 | 5.0 | 10.0 | 0.00 | 0.31 | 0.31 | 39 | 1015.1 |
| 20260501212034 | 72 | 80 | 4.0 | 9.0 | 0.00 | 0.31 | 0.31 | 42 | 1015.2 |
| 20260501211532 | 71 | 83 | 3.0 | 7.0 | 0.00 | 0.31 | 0.31 | 41 | 1015.2 |
| 20260501211031 | 71 | 305 | 1.0 | 10.0 | 0.00 | 0.31 | 0.31 | 37 | 1015.2 |
| 20260501210531 | 71 | 22 | 3.0 | 13.0 | 0.00 | 0.31 | 0.31 | 38 | 1015.3 |
| 20260501210034 | 71 | 49 | 8.0 | 13.0 | 0.00 | 0.31 | 0.31 | 37 | 1015.4 |
| 20260501205530 | 71 | 37 | 5.0 | 9.0 | 0.00 | 0.31 | 0.31 | 39 | 1015.4 |
| 20260501205031 | 70 | 9 | 3.0 | 8.0 | 0.00 | 0.31 | 0.31 | 41 | 1015.4 |
| 20260501204528 | 70 | 39 | 2.0 | 8.0 | 0.00 | 0.31 | 0.31 | 40 | 1015.5 |
| 20260501204028 | 70 | 108 | 2.0 | 12.0 | 0.00 | 0.31 | 0.31 | 42 | 1015.5 |
| 20260501203528 | 69 | 357 | 6.0 | 12.0 | 0.00 | 0.31 | 0.31 | 41 | 1015.5 |
| 20260501203033 | 69 | 10 | 2.0 | 8.0 | 0.00 | 0.31 | 0.31 | 44 | 1015.5 |
| 20260501202530 | 70 | 3 | 3.0 | 10.0 | 0.00 | 0.31 | 0.31 | 41 | 1015.6 |
| 20260501202028 | 70 | 65 | 5.0 | 10.0 | 0.00 | 0.31 | 0.31 | 43 | 1015.5 |
| 20260501201528 | 69 | 45 | 5.0 | 10.0 | 0.00 | 0.31 | 0.31 | 43 | 1015.6 |
| 20260501201027 | 69 | 46 | 5.0 | 10.0 | 0.00 | 0.31 | 0.31 | 43 | 1015.6 |
| 20260501200525 | 68 | 63 | 5.0 | 11.0 | 0.00 | 0.31 | 0.31 | 46 | 1015.6 |
| 20260501200024 | 68 | 17 | 5.0 | 10.0 | 0.00 | 0.31 | 0.31 | 45 | 1015.6 |
| 20260501195524 | 67 | 17 | 6.0 | 14.0 | 0.00 | 0.31 | 0.31 | 46 | 1015.6 |
| 20260501195027 | 67 | 357 | 6.0 | 14.0 | 0.00 | 0.31 | 0.31 | 48 | 1015.6 |
| 20260501194525 | 67 | 8 | 7.0 | 14.0 | 0.00 | 0.31 | 0.31 | 48 | 1015.5 |
| 20260501194024 | 68 | 356 | 7.0 | 14.0 | 0.00 | 0.31 | 0.31 | 47 | 1015.5 |
| 20260501193523 | 68 | 34 | 6.0 | 12.0 | 0.00 | 0.31 | 0.31 | 48 | 1015.7 |
| 20260501193025 | 68 | 3 | 6.0 | 12.0 | 0.00 | 0.31 | 0.31 | 49 | 1015.6 |
| 20260501192523 | 69 | 11 | 6.0 | 11.0 | 0.00 | 0.31 | 0.31 | 47 | 1015.6 |
| 20260501192022 | 69 | 4 | 4.0 | 12.0 | 0.00 | 0.31 | 0.31 | 49 | 1015.6 |